Weather reports worldwide

Advertisment
Warburg, Germany (10435): temperature & dewpoint: 12.02.2020 11:00:00 - 18.02.2020 11:00:00 (CET)Warburg, Germany (10435): temperature 5cm & temperature -5cm: 12.02.2020 11:00:00 - 18.02.2020 11:00:00 (CET)Warburg, Germany (10435): temperature -20cm & temperature -100cm: 12.02.2020 11:00:00 - 18.02.2020 11:00:00 (CET)Warburg, Germany (10435): wind speed & gusts: 12.02.2020 11:00:00 - 18.02.2020 11:00:00 (CET)Warburg, Germany (10435): wind direction: 12.02.2020 11:00:00 - 18.02.2020 11:00:00 (CET)Warburg, Germany (10435): reduced air pressure: 12.02.2020 11:00:00 - 18.02.2020 11:00:00 (CET)Warburg, Germany (10435): visibility: 12.02.2020 11:00:00 - 18.02.2020 11:00:00 (CET)Warburg, Germany (10435): sunshine duration: 12.02.2020 11:00:00 - 18.02.2020 11:00:00 (CET)Warburg, Germany (10435): precipitation: 12.02.2020 11:00:00 - 18.02.2020 11:00:00 (CET)
Date & Time tt [°C] td [°C] tt 5cm [°C] tt -5cm [°C] tt -20cm [°C] tt -100cm [°C] ff [km/h] ff [kn] fx [km/h] fx [kn] dd ppp [hPa] vv [km] sd [min] rr [mm]
18.02.2020 11:00:00 - - - - - - - - - - - - - - -
18.02.2020 10:00:00 5,8 0,2 6,0 4,0 4,7 4,8 28 15 47 26 WSW 1021,8 54 28 0,0
18.02.2020 09:00:00 5,3 0,0 5,8 3,8 4,8 4,8 26 14 50 27 WSW 1021,3 48 52 0,0
18.02.2020 08:00:00 5,0 -0,1 3,2 4,1 5,0 4,8 28 15 51 28 WSW 1019,9 52 0 0,0
18.02.2020 07:00:00 5,2 0,9 3,2 4,5 5,1 4,8 29 16 52 28 WSW 1019,1 63 0 0,0
18.02.2020 06:00:00 5,8 2,2 4,7 4,6 5,1 4,8 24 13 47 26 WSW 1018,6 53 0 0,0
18.02.2020 05:00:00 5,9 2,6 4,5 4,6 5,2 4,8 27 15 48 26 SW 1018,1 28 0 0,0
18.02.2020 04:00:00 6,1 2,7 4,4 4,8 5,2 4,8 27 15 53 29 WSW 1017,7 48 0 0,1
18.02.2020 03:00:00 6,4 2,9 4,8 4,8 5,3 4,8 31 17 50 27 WSW 1017,3 39 0 0,0
18.02.2020 02:00:00 6,8 2,6 5,5 4,7 5,4 4,8 29 15 55 30 WSW 1016,7 63 0 0,0
18.02.2020 01:00:00 6,6 2,3 5,3 4,8 5,5 4,7 27 15 46 25 WSW 1016,4 59 0 0,0
18.02.2020 00:00:00 6,6 2,0 4,8 4,9 5,6 4,7 26 14 40 22 WSW 1015,6 56 0 0,0
17.02.2020 23:00:00 5,4 2,7 4,6 4,9 5,8 4,7 10 5 23 12 SSW 1015,6 63 0 0,0
17.02.2020 22:00:00 4,9 2,1 3,3 5,1 6,0 4,7 7 4 36 19 S 1015,5 59 0 0,0
17.02.2020 21:00:00 6,0 1,7 3,7 5,4 6,2 4,7 18 10 33 18 SW 1014,8 64 0 0,0
17.02.2020 20:00:00 5,5 1,8 2,7 6,1 6,4 4,7 14 8 37 20 SW 1015,2 56 0 0,0
17.02.2020 19:00:00 5,6 2,0 3,7 6,7 6,5 4,7 26 14 59 32 SW 1014,4 75 0 1,8
17.02.2020 18:00:00 6,6 2,1 5,9 7,3 6,5 4,7 32 17 58 31 WNW 1014,3 18 4 0,0
17.02.2020 17:00:00 9,6 1,1 8,2 7,8 6,4 4,7 18 10 36 20 SW 1012,7 62 49 0,0
17.02.2020 16:00:00 10,1 0,4 9,8 7,8 6,2 4,6 25 14 49 26 SW 1012,8 58 58 0,0
17.02.2020 15:00:00 9,9 0,0 10,7 7,3 6,0 4,6 28 15 49 26 SW 1012,9 58 53 0,0
17.02.2020 14:00:00 9,7 1,5 10,7 6,7 5,8 4,6 21 11 36 20 SW 1013,3 67 10 0,0
17.02.2020 13:00:00 8,6 2,4 8,8 6,3 5,7 4,6 22 12 39 21 SW 1013,8 75 0 0,0
17.02.2020 12:00:00 7,8 2,8 8,0 5,9 5,6 4,6 21 11 31 17 SW 1014,3 55 0 0,0
17.02.2020 11:00:00 7,5 2,9 7,4 5,4 5,6 4,6 13 7 26 14 SSW 1014,5 59 0 0,0
17.02.2020 10:00:00 7,0 2,2 6,3 5,2 5,7 4,6 16 9 32 18 SSW 1014,5 50 0 0,0
17.02.2020 09:00:00 6,6 2,7 5,5 5,2 5,9 4,6 8 4 19 10 SSW 1014,3 69 0 0,0
17.02.2020 08:00:00 6,8 1,3 5,0 5,4 6,0 4,5 14 8 37 20 SW 1013,9 48 0 0,0
17.02.2020 07:00:00 7,5 1,3 5,8 5,7 6,2 4,5 25 13 45 25 WSW 1013,2 53 0 0,0
17.02.2020 06:00:00 7,7 1,7 5,9 6,0 6,3 4,5 28 15 52 28 WSW 1012,3 53 0 0,0
17.02.2020 05:00:00 7,7 2,4 6,0 6,2 6,5 4,5 26 14 47 26 WSW 1011,6 66 0 0,0
17.02.2020 04:00:00 7,7 2,9 6,1 6,5 6,6 4,5 26 14 45 24 WSW 1010,7 67 0 0,0
17.02.2020 03:00:00 7,7 3,3 5,4 6,8 6,7 4,5 28 15 48 26 WSW 1010,2 75 0 0,3
17.02.2020 02:00:00 7,0 5,7 6,2 7,1 6,8 4,5 20 11 46 25 WSW 1009,4 11 0 1,0
17.02.2020 01:00:00 7,6 5,9 6,5 7,3 6,9 4,5 23 12 51 28 WSW 1008,6 21 0 0,4
17.02.2020 00:00:00 8,2 6,1 6,9 7,5 6,9 4,5 23 13 56 30 WSW 1007,7 20 0 0,2
16.02.2020 23:00:00 8,4 6,5 7,3 7,7 6,9 4,5 35 19 61 33 W 1006,7 32 0 0,4
16.02.2020 22:00:00 9,1 6,6 8,5 7,8 7,0 4,5 48 26 71 38 WNW 1004,8 17 0 0,0
16.02.2020 21:00:00 14,8 5,0 12,9 7,9 7,0 4,5 36 19 61 33 SW 1001,2 67 0 0,0
16.02.2020 20:00:00 14,9 4,5 12,8 8,1 7,1 4,4 31 17 56 30 SW 1001,2 75 0 0,0
16.02.2020 19:00:00 14,9 4,6 12,8 8,4 7,1 4,4 25 14 51 28 SSW 1002,1 69 0 0,0
16.02.2020 18:00:00 15,1 5,0 13,3 8,8 7,0 4,4 26 14 49 26 SSW 1002,0 59 0 0,0
16.02.2020 17:00:00 15,2 5,9 13,9 9,1 6,9 4,4 29 16 52 28 SSW 1002,1 75 0 0,0
16.02.2020 16:00:00 14,6 5,8 13,7 9,2 6,6 4,4 23 13 45 24 SSW 1003,3 54 0 0,0
16.02.2020 15:00:00 14,8 6,0 14,4 9,1 6,2 4,4 20 11 53 29 SSW 1004,0 74 28 0,0
16.02.2020 14:00:00 14,1 6,5 14,2 8,6 5,8 4,4 28 15 56 31 SSW 1004,7 59 50 0,0
16.02.2020 13:00:00 13,4 6,8 14,5 7,6 5,5 4,4 28 15 54 29 SW 1006,1 50 22 0,0
16.02.2020 12:00:00 12,2 7,5 12,3 6,8 5,3 4,4 24 13 55 30 SSW 1006,8 72 0 0,0
16.02.2020 11:00:00 11,8 7,4 11,8 6,2 5,1 4,4 25 14 51 27 SSW 1007,6 50 0 0,0
16.02.2020 10:00:00 10,4 6,4 9,9 5,8 5,0 4,4 24 13 50 27 SSW 1008,3 61 0 0,0
16.02.2020 09:00:00 9,6 5,7 8,9 5,5 4,9 4,4 24 13 45 24 SSW 1008,3 66 0 0,0
16.02.2020 08:00:00 9,2 5,6 8,3 5,4 4,8 4,4 22 12 43 23 SSW 1008,9 52 0 0,1
16.02.2020 07:00:00 9,7 4,4 8,8 5,2 4,8 4,4 20 11 47 25 SSW 1009,0 64 0 0,0
16.02.2020 06:00:00 9,6 4,1 8,5 5,0 4,7 4,4 20 11 40 22 SSW 1009,9 59 0 0,0
16.02.2020 05:00:00 9,2 3,8 8,1 4,9 4,7 4,4 22 12 43 23 SSW 1010,7 60 0 0,0
16.02.2020 04:00:00 8,8 3,5 7,7 4,8 4,7 4,4 23 13 45 25 SSW 1010,9 58 0 0,0
16.02.2020 03:00:00 8,1 3,2 6,7 4,9 4,8 4,4 18 10 41 22 SSW 1011,6 58 0 0,0
16.02.2020 02:00:00 7,8 3,0 6,6 5,0 4,8 4,4 18 10 41 22 SSW 1012,2 62 0 0,0
16.02.2020 01:00:00 8,1 3,0 7,0 5,0 4,8 4,4 19 10 44 24 SSW 1012,4 63 0 0,0
16.02.2020 00:00:00 8,2 3,0 7,3 5,0 4,9 4,4 25 13 44 24 SSW 1013,5 68 0 0,0
15.02.2020 23:00:00 8,2 3,0 7,1 5,0 4,9 4,4 24 13 51 28 SW 1014,0 66 0 0,0
15.02.2020 22:00:00 8,1 3,2 7,1 5,1 5,0 4,4 21 11 44 24 SSW 1014,9 60 0 0,0
15.02.2020 21:00:00 7,8 3,6 6,5 5,2 5,1 4,4 21 11 43 23 SSW 1015,9 54 0 0,0
15.02.2020 20:00:00 6,8 3,4 5,5 5,6 5,3 4,4 10 6 28 15 SSW 1016,2 46 0 0,0
15.02.2020 19:00:00 7,4 3,6 6,1 6,1 5,3 4,4 13 7 27 15 S 1016,6 39 0 0,0
15.02.2020 18:00:00 7,5 3,8 6,2 6,9 5,3 4,4 10 6 28 15 SSE 1016,9 39 0 0,0
15.02.2020 17:00:00 8,9 3,9 7,9 7,5 5,0 4,4 13 7 33 18 S 1017,8 46 53 0,0
15.02.2020 16:00:00 9,4 4,2 8,7 7,6 4,6 4,4 18 10 34 19 SSW 1018,3 48 57 0,0
15.02.2020 15:00:00 10,0 4,3 10,7 7,0 4,1 4,4 14 7 37 20 SSW 1018,0 36 60 0,0
15.02.2020 14:00:00 8,8 3,9 10,1 6,2 3,6 4,4 21 11 54 29 SSW 1018,9 33 60 0,0
15.02.2020 13:00:00 8,5 3,9 10,3 4,9 3,1 4,4 19 10 39 21 SSW 1020,1 47 59 0,0
15.02.2020 12:00:00 7,8 3,6 9,5 3,8 2,8 4,4 16 9 34 18 SSW 1021,0 38 13 0,0
15.02.2020 11:00:00 6,6 3,4 6,9 2,9 2,6 4,4 17 9 34 19 SSW 1021,4 35 20 0,0
15.02.2020 10:00:00 5,7 3,5 6,0 2,0 2,6 4,4 12 6 34 18 S 1022,0 33 7 0,0
15.02.2020 09:00:00 4,6 2,8 3,9 1,5 2,6 4,4 12 6 30 16 S 1022,5 33 0 0,0
15.02.2020 08:00:00 4,3 2,5 2,9 1,5 2,7 4,4 13 7 29 16 SSW 1022,2 31 0 0,0
15.02.2020 07:00:00 4,0 2,4 2,4 1,6 2,9 4,4 10 5 23 12 SSW 1022,2 34 0 0,0
15.02.2020 06:00:00 2,6 1,4 1,0 1,7 3,0 4,4 8 5 16 9 S 1022,7 31 0 0,0
15.02.2020 05:00:00 2,3 1,2 0,5 1,9 3,2 4,4 7 4 17 9 S 1023,1 28 0 0,0
15.02.2020 04:00:00 1,9 1,0 0,0 2,1 3,4 4,4 6 3 12 7 S 1024,0 24 0 0,0
15.02.2020 03:00:00 1,4 0,4 -2,3 2,4 3,6 4,4 3 1 16 8 SSW 1024,4 23 0 0,0
15.02.2020 02:00:00 2,9 0,9 1,6 2,7 3,7 4,4 10 5 14 8 S 1024,7 33 0 0,0
15.02.2020 01:00:00 2,9 0,9 0,6 3,1 3,9 4,4 6 4 13 7 SSW 1025,1 33 0 0,0
15.02.2020 00:00:00 2,8 0,8 0,9 3,5 4,0 4,4 7 4 15 8 S 1025,2 31 0 0,0
14.02.2020 23:00:00 3,6 1,0 2,6 3,8 4,2 4,4 6 3 12 7 S 1025,4 30 0 0,0
14.02.2020 22:00:00 4,4 1,0 2,5 4,2 4,2 4,4 4 2 19 10 S 1025,7 46 0 0,0
14.02.2020 21:00:00 5,4 1,1 4,5 4,4 4,3 4,4 10 5 18 10 SSW 1025,4 45 0 0,0
14.02.2020 20:00:00 5,4 1,4 4,5 4,5 4,3 4,4 13 7 23 12 SW 1024,7 41 0 0,0
14.02.2020 19:00:00 5,5 1,8 4,6 4,8 4,4 4,4 11 6 17 9 SW 1024,3 42 0 0,0
14.02.2020 18:00:00 5,5 1,7 4,5 5,1 4,3 4,4 11 6 23 12 SW 1023,1 46 0 0,0
14.02.2020 17:00:00 5,8 2,2 5,3 5,3 4,2 4,4 14 7 21 11 WSW 1022,7 45 0 0,0
14.02.2020 16:00:00 5,9 2,3 5,8 5,3 4,0 4,4 13 7 27 15 W 1022,0 48 0 0,0
14.02.2020 15:00:00 5,8 2,8 6,0 5,2 3,8 4,4 18 10 29 16 W 1021,5 66 0 0,0
14.02.2020 14:00:00 5,8 2,9 6,1 5,0 3,6 4,4 18 10 31 17 W 1020,7 58 0 0,0
14.02.2020 13:00:00 5,8 3,5 5,9 4,7 3,3 4,4 16 9 31 17 W 1020,1 50 2 0,0
14.02.2020 12:00:00 6,4 3,4 8,0 4,0 3,1 4,4 21 11 33 18 W 1019,4 65 4 0,0
14.02.2020 11:00:00 5,3 3,2 4,8 3,5 3,0 4,5 16 9 24 13 W 1018,2 22 0 0,0
14.02.2020 10:00:00 5,1 3,4 4,4 3,1 2,9 4,5 9 5 18 10 SW 1017,1 24 0 0,1
14.02.2020 09:00:00 4,8 3,1 4,0 2,9 2,8 4,5 12 6 31 17 WSW 1015,9 29 0 0,0
14.02.2020 08:00:00 5,2 3,3 4,0 2,7 2,8 4,5 16 9 25 13 W 1014,4 24 0 0,0
14.02.2020 07:00:00 4,8 3,2 3,4 2,7 2,8 4,5 10 5 19 10 WSW 1013,0 20 0 0,0
14.02.2020 06:00:00 4,7 2,9 2,8 2,8 2,7 4,5 11 6 24 13 W 1011,5 23 0 0,0
14.02.2020 05:00:00 5,4 3,6 4,2 2,6 2,7 4,5 15 8 21 12 W 1009,9 23 0 0,0
14.02.2020 04:00:00 4,5 4,0 3,7 2,5 2,6 4,5 9 5 16 9 W 1008,9 18 0 0,1
14.02.2020 03:00:00 3,6 2,9 2,9 2,3 2,6 4,5 8 4 15 8 WSW 1008,0 4,6 0 0,0
14.02.2020 02:00:00 3,4 2,7 2,7 2,3 2,6 4,5 8 5 16 9 SSW 1006,4 14 0 0,0
14.02.2020 01:00:00 3,6 2,7 2,6 2,4 2,6 4,5 9 5 20 11 SSW 1005,1 17 0 0,0
14.02.2020 00:00:00 3,5 2,6 2,3 2,5 2,6 4,5 12 7 22 12 SW 1004,0 17 0 0,0
13.02.2020 23:00:00 3,9 2,9 2,9 2,4 2,5 4,5 12 6 21 12 SSW 1002,9 23 0 0,2
13.02.2020 22:00:00 3,6 2,7 2,9 2,3 2,5 4,5 11 6 24 13 SSW 1002,2 18 0 0,3
13.02.2020 21:00:00 3,3 2,3 2,7 2,2 2,5 4,6 6 3 22 12 S 1001,6 22 0 0,0
13.02.2020 20:00:00 3,3 2,2 2,7 2,2 2,4 4,6 11 6 29 16 SSW 1001,1 37 0 0,0
13.02.2020 19:00:00 2,7 1,8 1,8 2,3 2,4 4,6 13 7 31 17 SSW 1000,8 34 0 0,0
13.02.2020 18:00:00 2,6 1,6 2,2 2,2 2,3 4,6 10 6 27 15 S 1000,3 49 0 0,0
13.02.2020 17:00:00 2,4 1,7 2,2 2,1 2,1 4,6 7 4 26 14 S 1000,9 17 0 0,0
13.02.2020 16:00:00 2,5 1,7 2,3 1,8 2,0 4,6 11 6 34 18 S 1001,4 39 0 0,3
13.02.2020 15:00:00 2,4 1,5 2,1 1,4 1,9 4,6 17 9 41 22 S 1002,2 28 0 1,0
13.02.2020 14:00:00 2,5 1,0 1,7 1,1 2,0 4,6 20 11 52 28 SSE 1003,8 12 0 0,9
13.02.2020 13:00:00 2,9 1,5 2,3 1,1 2,0 4,6 24 13 45 24 SSE 1005,1 28 0 0,4
13.02.2020 12:00:00 2,9 1,2 2,1 1,1 2,0 4,6 16 9 28 15 SSE 1007,5 39 0 0,1
13.02.2020 11:00:00 2,2 0,9 1,9 1,1 2,1 4,6 9 5 24 13 S 1009,6 26 0 0,0
13.02.2020 10:00:00 1,6 0,3 1,4 1,1 2,1 4,6 9 5 22 12 SSE 1010,5 20 0 0,0
13.02.2020 09:00:00 0,8 -0,6 0,5 1,2 2,2 4,6 9 5 20 11 SSE 1012,4 26 0 0,0
13.02.2020 08:00:00 0,6 -0,7 -0,3 1,2 2,2 4,6 9 5 34 18 S 1013,3 35 0 0,0
13.02.2020 07:00:00 0,8 -0,8 -0,5 1,2 2,3 4,6 11 6 31 17 SSW 1014,2 42 0 0,0
13.02.2020 06:00:00 0,9 -0,8 -0,3 1,3 2,3 4,6 11 6 25 13 SSW 1014,8 43 0 0,0
13.02.2020 05:00:00 1,1 -0,9 -0,3 1,3 2,4 4,6 13 7 26 14 SSW 1015,4 40 0 0,0
13.02.2020 04:00:00 1,3 -1,0 -0,4 1,3 2,5 4,6 14 8 27 15 SSW 1015,9 43 0 0,0
13.02.2020 03:00:00 1,8 -1,0 0,4 1,4 2,5 4,6 14 8 25 13 SSW 1016,2 46 0 0,0
13.02.2020 02:00:00 1,9 -1,4 0,6 1,5 2,6 4,6 14 8 24 13 SSW 1017,1 43 0 0,0
13.02.2020 01:00:00 2,8 -1,8 1,6 1,6 2,8 4,7 14 8 23 13 SSW 1017,0 51 0 0,0
13.02.2020 00:00:00 2,6 -1,7 0,5 1,7 2,9 4,7 14 7 31 17 SSW 1016,7 53 0 0,0
12.02.2020 23:00:00 2,9 -1,7 0,9 1,8 3,1 4,7 23 12 42 23 WSW 1016,2 46 0 0,0
12.02.2020 22:00:00 2,8 -1,6 0,8 2,0 3,2 4,7 23 13 44 24 W 1016,2 53 0 0,0
12.02.2020 21:00:00 2,4 -0,9 0,4 2,4 3,4 4,7 22 12 49 26 W 1016,2 52 0 0,0
12.02.2020 20:00:00 2,5 -0,4 1,1 2,7 3,6 4,7 22 12 68 37 WSW 1015,8 46 0 0,1
12.02.2020 19:00:00 3,6 -1,7 2,0 3,3 3,8 4,7 27 15 45 24 W 1014,9 51 0 0,0
12.02.2020 18:00:00 4,0 -2,5 1,9 4,0 3,8 4,7 23 13 42 23 WSW 1014,0 46 11 0,0
12.02.2020 17:00:00 4,8 -1,7 3,9 4,4 3,8 4,7 26 14 51 28 WSW 1013,1 53 57 0,0
12.02.2020 16:00:00 4,8 -2,1 4,3 4,7 3,6 4,7 33 18 52 28 W 1013,1 57 19 0,0
12.02.2020 15:00:00 5,2 -2,5 5,5 4,9 3,3 4,7 32 17 63 34 W 1012,3 54 33 0,0
12.02.2020 14:00:00 5,5 -2,7 6,4 4,6 2,9 4,7 35 19 59 32 W 1012,1 40 44 0,0
12.02.2020 13:00:00 5,4 -2,5 7,1 3,8 2,5 4,7 35 19 61 33 W 1011,9 48 56 0,0
12.02.2020 12:00:00 5,3 -2,3 7,7 2,5 2,2 4,7 40 22 72 39 W 1011,7 45 57 0,0
12.02.2020 11:00:00 4,6 -2,4 6,3 1,3 2,2 4,7 39 21 64 35 WSW 1011,4 58 54 0,0

tt = temperature
td = dewpoint
tt 5cm = temperature 5cm
tt -5cm = temperature -5cm
tt -20cm = temperature -20cm
tt -100cm = temperature -100cm
ff = wind speed
fx = gusts
dd = wind direction
ppp = reduced air pressure
vv = visibility
sd = sunshine duration
rr = precipitation

Next stations